Simultaneous Nadir Overpasses (SNOs) Predictions

Prediction of SNOs between METOP-A and TERRA Satellite Orbit:

Table of predicted SNOs for the next 14.0 days since TLE Epoch: 4/20/2019
Index Date (METOP-A) Time (METOP-A) Lat,Lon (METOP-A) SZA (METOP-A ) Date (TERRA) Time (TERRA) Lat,Lon (TERRA) SZA (TERRA ) Distance(km) Time Diff (sec)
1 04/20/2019 15:13:00 81.45, 1.82 73.04 04/20/2019 15:13:54 81.45, 1.72 73.06 1.56 54
2 04/20/2019 16:03:41 -81.45, 169.10 106.98 04/20/2019 16:03:21 -81.44, 169.20 106.98 1.99 20
3 04/23/2019 10:47:13 81.45, 68.01 72.09 04/23/2019 10:48:09 81.45, 68.15 72.13 2.29 56
4 04/23/2019 11:37:53 -81.45,-124.27 107.89 04/23/2019 11:37:36 -81.44,-124.35 107.91 1.55 17
5 04/26/2019 06:21:26 81.45, 134.59 71.20 04/26/2019 06:22:25 81.45, 134.61 71.23 0.41 59
6 04/26/2019 07:12:07 -81.45, -58.06 108.81 04/26/2019 07:11:52 -81.45, -57.87 108.80 3.23 15
7 04/29/2019 01:55:39 81.45,-158.85 70.34 04/29/2019 01:56:41 81.46,-158.88 70.37 0.66 62
8 04/29/2019 02:46:20 -81.45, 8.53 109.67 04/29/2019 02:46:08 -81.45, 8.66 109.66 2.12 12
9 05/01/2019 21:29:52 81.45, -92.70 69.46 05/01/2019 21:30:57 81.44, -92.72 69.48 1.19 65




NCC Satellite Simultaneous Nadir Overpasses (SNOs) Prediction Service
